[Date Prev][Date Next][Thread Prev][Thread Next] - [Date Index][Thread Index][Author Index]

2 line ISS Keps - these update 12 sec's



ISS
1 25544U 98067A   01129.43334009  .00045993  00000-0  57250-3 0  9520
2 25544  51.5731 284.0792 0017423  28.8768  67.3306 15.59288859141025

----
Via the sarex mailing list at AMSAT.ORG courtesy of AMSAT-NA.
To unsubscribe, send "unsubscribe sarex" to Majordomo@amsat.org



AMSAT Top AMSAT Home